shoulder
new_line
new_line
first
second
third
Al di la della Luna; Beyond the Moon; Astrophotography; Astrofotografia; Danilo Pivato
 
 
         
         
2017
Orbital Elements

Epoch 2017 Jan. 7.0 TT = JDT 2457760.5  
T 2017 Jan. 14.01665 TT                                 MPCW  
q   0.3191692            (2000.0)            P               Q  
z  -0.0008140      Peri.  162.74839      -0.63623687    +0.43618554   
+/-0.0000197       Node    61.42852    -0.76529801     -0.25250054  
e   1.0002598      Incl.     46.43498     -0.09757869     -0.86370461
 
         
         
2017.01.07
   
         
         
         
         
         
         

 

       
 
Since: 01/01/2004
 
       
 
Since: 01/11/2010